Home   Weather   Zwettl   Past weeks
Flag for Austria

Past Weather in Zwettl, Lower Austria, Austria — Yesterday and Last 2 Weeks

Now
51 °F

Cool.


Feels Like: 50 °F
Forecast: 67 / 47 °F
Wind: 3 mph from East

Location: Retz

Current Time: Oct 20, 2019 at 1:23:30 pm

Latest Report: Oct 20, 2019 at 12:00 pm


Visibility: N/A

Pressure: 29.98 "Hg (28.14 "Hg at 524m altitude)

Humidity: 100%

Dew Point: 51 °F

Location of ZwettlLocation

Past Weather in Zwettl — Graph

°F

Zwettl Temperature Yesterday

Maximum temperature yesterday: 52 °F (at 2:00 pm)
Minimum temperature yesterday: 49 °F (at 8:00 am)
Average temperature yesterday: 51 °F

High & Low Weather Summary for the Past Weeks

 TemperatureHumidityPressure
High68 °F (Oct 15, 4:00 pm)100% (Oct 9, 5:00 pm)30.22 "Hg (Oct 9, 5:00 pm)
Low35 °F (Oct 8, 4:00 am)34% (Oct 7, 5:00 pm)29.67 "Hg (Oct 5, 2:00 pm)
Average51 °F85%30.01 "Hg
* Reported Oct 5 11:00 am — Oct 20 11:00 am, Zwettl. Weather by CustomWeather, © 2019

Note: Actual official high and low records may vary slightly from our data, if they occured in-between our weather recording intervals... More about our weather records

Advertising

Zwettl Weather History for the Previous 24 Hours

Scroll right to see more
 ConditionsComfort  
Time TempWeatherWind HumidityBarometerVisibility
11:00 am
Sun, Oct 20
51 °FCool.2 mph100%29.98 "HgN/A
10:00 am50 °FCool.2 mph100%29.96 "HgN/A
9:00 am50 °FFog.2 mph100%29.96 "HgN/A
8:00 am50 °FFog.2 mph100%29.94 "Hg1 mi
7:00 am50 °FFog.2 mph100%29.93 "Hg1 mi
6:00 am49 °FCool.2 mph100%29.93 "HgN/A
5:00 am50 °FCool.2 mph100%29.92 "HgN/A
4:00 am50 °FCool.2 mph100%29.91 "HgN/A
3:00 am50 °FFog.2 mph100%29.93 "HgN/A
2:00 am50 °FCool.1 mph100%29.94 "HgN/A
1:00 am50 °FCool.2 mph100%29.93 "HgN/A
12:00 am51 °FCool.1 mph100%29.93 "HgN/A
11:00 pm
Sat, Oct 19
51 °FCool.1 mph100%29.94 "HgN/A
10:00 pm51 °FCool.No wind100%29.94 "HgN/A
9:00 pm50 °FCool.1 mph100%29.95 "HgN/A
8:00 pm51 °FFog.No wind100%29.96 "Hg1 mi
7:00 pm50 °FCool.1 mph100%29.96 "HgN/A
6:00 pm51 °FCool.1 mph100%29.94 "HgN/A
5:00 pm51 °FCool.2 mph100%29.94 "HgN/A
4:00 pm51 °FCool.2 mph100%29.93 "HgN/A
3:00 pm52 °FFog.2 mph100%29.93 "HgN/A
2:00 pm52 °FLow clouds.2 mph100%29.93 "Hg1 mi
1:00 pm52 °FCool.3 mph100%29.93 "HgN/A
Weather by CustomWeather, © 2019

See weather overview